Time,TemperatureF,DewpointF,PressureIn,WindDirection,WindDirectionDegrees,WindSpeedMPH,WindSpeedGustMPH,Humidity,HourlyPrecipIn,Conditions,Clouds,dailyrainin,SolarRadiationWatts/m^2,SoftwareType,DateUTC
2013-05-25 00:02:00,52.0,46.0,-100.00,North,6,0.0,1.0,81,0.00,,,0.00,0.000000,,2013-05-25 04:02:00,
2013-05-25 00:33:00,49.0,46.0,-100.00,SSW,193,0.0,0.0,90,0.00,,,0.00,0.000000,,2013-05-25 04:33:00,
2013-05-25 00:43:00,49.0,46.0,-100.00,SSW,193,0.0,0.0,90,0.00,,,0.00,0.000000,,2013-05-25 04:43:00,
2013-05-25 00:53:00,49.0,46.0,-100.00,SSW,193,0.0,0.0,90,0.00,,,0.00,0.000000,,2013-05-25 04:53:00,
2013-05-25 01:02:00,49.0,46.0,-100.00,SSW,193,0.0,0.0,90,0.00,,,0.00,0.000000,,2013-05-25 05:02:00,
2013-05-25 01:32:00,48.0,46.0,-100.00,SSE,150,0.0,0.0,92,0.00,,,0.00,0.000000,,2013-05-25 05:32:00,
2013-05-25 01:43:00,48.0,46.0,-100.00,SSE,150,0.0,0.0,92,0.00,,,0.00,0.000000,,2013-05-25 05:43:00,
2013-05-25 01:52:00,48.0,46.0,-100.00,SSE,150,0.0,0.0,92,0.00,,,0.00,0.000000,,2013-05-25 05:52:00,
2013-05-25 02:02:00,48.0,46.0,-100.00,SSE,150,0.0,0.0,92,0.00,,,0.00,0.000000,,2013-05-25 06:02:00,
2013-05-25 02:32:00,46.0,45.0,-100.00,East,82,0.0,0.0,95,0.00,,,0.00,0.000000,,2013-05-25 06:32:00,
2013-05-25 02:42:00,46.0,45.0,-100.00,East,82,0.0,0.0,95,0.00,,,0.00,0.000000,,2013-05-25 06:42:00,
2013-05-25 02:52:00,46.0,45.0,-100.00,East,82,0.0,0.0,95,0.00,,,0.00,0.000000,,2013-05-25 06:52:00,
2013-05-25 03:01:00,46.0,45.0,-100.00,East,82,0.0,0.0,95,0.00,,,0.00,0.000000,,2013-05-25 07:01:00,
2013-05-25 03:32:00,45.0,44.0,-100.00,ESE,104,0.0,0.0,95,0.00,,,0.00,0.000000,,2013-05-25 07:32:00,
2013-05-25 03:42:00,45.0,44.0,-100.00,ESE,104,0.0,0.0,95,0.00,,,0.00,0.000000,,2013-05-25 07:42:00,
2013-05-25 03:52:00,45.0,44.0,-100.00,ESE,104,0.0,0.0,95,0.00,,,0.00,0.000000,,2013-05-25 07:52:00,
2013-05-25 04:02:00,45.0,44.0,-100.00,ESE,104,0.0,0.0,95,0.00,,,0.00,0.000000,,2013-05-25 08:02:00,
2013-05-25 04:32:00,45.0,44.0,-100.00,ENE,59,0.0,0.0,96,0.00,,,0.00,0.000000,,2013-05-25 08:32:00,
2013-05-25 04:42:00,45.0,44.0,-100.00,ENE,59,0.0,0.0,96,0.00,,,0.00,0.000000,,2013-05-25 08:42:00,
2013-05-25 04:52:00,45.0,44.0,-100.00,ENE,59,0.0,0.0,96,0.00,,,0.00,0.000000,,2013-05-25 08:52:00,
2013-05-25 05:02:00,45.0,44.0,-100.00,ENE,59,0.0,0.0,96,0.00,,,0.00,0.000000,,2013-05-25 09:02:00,
2013-05-25 05:33:00,45.0,43.0,-100.00,SSW,207,0.0,4.0,91,0.00,,,0.00,0.000000,,2013-05-25 09:33:00,
2013-05-25 05:43:00,45.0,43.0,-100.00,SSW,207,0.0,4.0,91,0.00,,,0.00,0.000000,,2013-05-25 09:43:00,
2013-05-25 05:53:00,45.0,43.0,-100.00,SSW,207,0.0,4.0,91,0.00,,,0.00,0.000000,,2013-05-25 09:53:00,
2013-05-25 06:03:00,45.0,43.0,-100.00,SSW,207,0.0,4.0,91,0.00,,,0.00,0.000000,,2013-05-25 10:03:00,
2013-05-25 06:33:00,44.0,42.0,-100.00,SE,132,0.0,4.0,93,0.00,,,0.00,0.000000,,2013-05-25 10:33:00,
2013-05-25 06:42:00,44.0,42.0,-100.00,SE,132,0.0,4.0,93,0.00,,,0.00,0.000000,,2013-05-25 10:42:00,
2013-05-25 06:52:00,44.0,42.0,-100.00,SE,132,0.0,4.0,93,0.00,,,0.00,0.000000,,2013-05-25 10:52:00,
2013-05-25 07:03:00,44.0,42.0,-100.00,SE,132,0.0,4.0,93,0.00,,,0.00,0.000000,,2013-05-25 11:03:00,
2013-05-25 07:32:00,43.0,42.0,-100.00,SSE,163,0.0,0.0,96,0.00,,,0.00,13.000000,,2013-05-25 11:32:00,
2013-05-25 07:42:00,43.0,42.0,-100.00,SSE,163,0.0,0.0,96,0.00,,,0.00,13.000000,,2013-05-25 11:42:00,
2013-05-25 07:52:00,43.0,42.0,-100.00,SSE,163,0.0,0.0,96,0.00,,,0.00,13.000000,,2013-05-25 11:52:00,
2013-05-25 08:01:00,43.0,42.0,-100.00,SSE,163,0.0,0.0,96,0.00,,,0.00,13.000000,,2013-05-25 12:01:00,
2013-05-25 08:32:00,51.0,47.0,-100.00,NE,52,1.0,4.0,85,0.00,,,0.00,143.000000,,2013-05-25 12:32:00,
2013-05-25 08:42:00,51.0,47.0,-100.00,NE,52,1.0,4.0,85,0.00,,,0.00,143.000000,,2013-05-25 12:42:00,
2013-05-25 08:52:00,51.0,47.0,-100.00,NE,52,1.0,4.0,85,0.00,,,0.00,143.000000,,2013-05-25 12:52:00,
2013-05-25 09:02:00,51.0,47.0,-100.00,NE,52,1.0,4.0,85,0.00,,,0.00,143.000000,,2013-05-25 13:02:00,
2013-05-25 09:32:00,59.0,47.0,-100.00,NE,41,5.0,8.0,64,0.00,,,0.00,319.000000,,2013-05-25 13:32:00,
2013-05-25 09:42:00,59.0,47.0,-100.00,NE,41,5.0,8.0,64,0.00,,,0.00,319.000000,,2013-05-25 13:42:00,
2013-05-25 09:52:00,59.0,47.0,-100.00,NE,41,5.0,8.0,64,0.00,,,0.00,319.000000,,2013-05-25 13:52:00,
2013-05-25 10:02:00,59.0,47.0,-100.00,NE,41,5.0,8.0,64,0.00,,,0.00,319.000000,,2013-05-25 14:02:00,
2013-05-25 10:32:00,64.0,47.0,-100.00,NNE,30,5.0,10.0,53,0.00,,,-99.99,495.000000,,2013-05-25 14:32:00,
2013-05-25 10:42:00,64.0,47.0,-100.00,NNE,30,5.0,10.0,53,0.00,,,-99.99,495.000000,,2013-05-25 14:42:00,
2013-05-25 10:52:00,64.0,47.0,-100.00,NNE,30,5.0,10.0,53,0.00,,,-99.99,495.000000,,2013-05-25 14:52:00,
2013-05-25 11:01:00,64.0,47.0,-100.00,NNE,30,5.0,10.0,53,0.00,,,-99.99,495.000000,,2013-05-25 15:01:00,
2013-05-25 11:33:00,66.0,42.0,-100.00,North,4,4.0,11.0,41,0.00,,,0.00,643.000000,,2013-05-25 15:33:00,
2013-05-25 11:43:00,66.0,42.0,-100.00,North,4,4.0,11.0,41,0.00,,,0.00,643.000000,,2013-05-25 15:43:00,
2013-05-25 11:53:00,66.0,42.0,-100.00,North,4,4.0,11.0,41,0.00,,,0.00,643.000000,,2013-05-25 15:53:00,
2013-05-25 12:03:00,66.0,42.0,-100.00,North,4,4.0,11.0,41,0.00,,,0.00,643.000000,,2013-05-25 16:03:00,
2013-05-25 12:33:00,70.0,42.0,-100.00,North,10,2.0,8.0,36,0.00,,,0.00,798.000000,,2013-05-25 16:33:00,
2013-05-25 12:42:00,70.0,42.0,-100.00,North,10,2.0,8.0,36,0.00,,,0.00,798.000000,,2013-05-25 16:42:00,
2013-05-25 12:52:00,70.0,42.0,-100.00,North,10,2.0,8.0,36,0.00,,,0.00,798.000000,,2013-05-25 16:52:00,
2013-05-25 13:03:00,70.0,42.0,-100.00,North,10,2.0,8.0,36,0.00,,,0.00,798.000000,,2013-05-25 17:03:00,
2013-05-25 13:33:00,72.0,44.0,-100.00,WNW,302,2.0,8.0,37,0.00,,,0.00,903.000000,,2013-05-25 17:33:00,
2013-05-25 13:42:00,72.0,44.0,-100.00,WNW,302,2.0,8.0,37,0.00,,,0.00,903.000000,,2013-05-25 17:42:00,
2013-05-25 13:52:00,72.0,44.0,-100.00,WNW,302,2.0,8.0,37,0.00,,,0.00,903.000000,,2013-05-25 17:52:00,
2013-05-25 14:02:00,72.0,44.0,-100.00,WNW,302,2.0,8.0,37,0.00,,,0.00,903.000000,,2013-05-25 18:02:00,
2013-05-25 14:32:00,74.0,45.0,-100.00,NNW,334,2.0,8.0,35,0.00,,,0.00,937.000000,,2013-05-25 18:32:00,
2013-05-25 14:42:00,74.0,45.0,-100.00,NNW,334,2.0,8.0,35,0.00,,,0.00,937.000000,,2013-05-25 18:42:00,
2013-05-25 14:52:00,74.0,45.0,-100.00,NNW,334,2.0,8.0,35,0.00,,,0.00,937.000000,,2013-05-25 18:52:00,
2013-05-25 15:02:00,74.0,45.0,-100.00,NNW,334,2.0,8.0,35,0.00,,,0.00,937.000000,,2013-05-25 19:02:00,
2013-05-25 15:32:00,76.0,42.0,-100.00,North,11,0.0,8.0,30,0.00,,,0.00,918.000000,,2013-05-25 19:32:00,
2013-05-25 15:42:00,76.0,42.0,-100.00,North,11,0.0,8.0,30,0.00,,,0.00,918.000000,,2013-05-25 19:42:00,
2013-05-25 15:52:00,76.0,42.0,-100.00,North,11,0.0,8.0,30,0.00,,,0.00,918.000000,,2013-05-25 19:52:00,
2013-05-25 16:02:00,76.0,42.0,-100.00,North,11,0.0,8.0,30,0.00,,,0.00,918.000000,,2013-05-25 20:02:00,
2013-05-25 16:32:00,78.0,41.0,-100.00,ENE,76,1.0,10.0,27,0.00,,,0.00,844.000000,,2013-05-25 20:32:00,
2013-05-25 16:42:00,78.0,41.0,-100.00,ENE,76,1.0,10.0,27,0.00,,,0.00,844.000000,,2013-05-25 20:42:00,
2013-05-25 16:52:00,78.0,41.0,-100.00,ENE,76,1.0,10.0,27,0.00,,,0.00,844.000000,,2013-05-25 20:52:00,
2013-05-25 17:02:00,78.0,41.0,-100.00,ENE,76,1.0,10.0,27,0.00,,,0.00,844.000000,,2013-05-25 21:02:00,
2013-05-25 17:33:00,79.0,47.0,-100.00,ESE,116,0.0,7.0,32,0.00,,,0.00,631.000000,,2013-05-25 21:33:00,
2013-05-25 17:43:00,79.0,47.0,-100.00,ESE,116,0.0,7.0,32,0.00,,,0.00,631.000000,,2013-05-25 21:43:00,
2013-05-25 17:53:00,79.0,47.0,-100.00,ESE,116,0.0,7.0,32,0.00,,,0.00,631.000000,,2013-05-25 21:53:00,
2013-05-25 18:03:00,79.0,47.0,-100.00,ESE,116,0.0,7.0,32,0.00,,,0.00,631.000000,,2013-05-25 22:03:00,
2013-05-25 18:33:00,81.0,45.0,-100.00,NNE,26,0.0,8.0,28,0.00,,,0.00,537.000000,,2013-05-25 22:33:00,
2013-05-25 18:42:00,81.0,45.0,-100.00,NNE,26,0.0,8.0,28,0.00,,,0.00,537.000000,,2013-05-25 22:42:00,
2013-05-25 18:52:00,81.0,45.0,-100.00,NNE,26,0.0,8.0,28,0.00,,,0.00,537.000000,,2013-05-25 22:52:00,
2013-05-25 19:02:00,81.0,45.0,-100.00,NNE,26,0.0,8.0,28,0.00,,,0.00,537.000000,,2013-05-25 23:02:00,
2013-05-25 19:32:00,78.0,50.0,-100.00,East,87,0.0,7.0,38,0.00,,,0.00,257.000000,,2013-05-25 23:32:00,
2013-05-25 19:42:00,78.0,50.0,-100.00,East,87,0.0,7.0,38,0.00,,,0.00,257.000000,,2013-05-25 23:42:00,
2013-05-25 19:53:00,78.0,50.0,-100.00,East,87,0.0,7.0,38,0.00,,,0.00,257.000000,,2013-05-25 23:53:00,
2013-05-25 20:02:00,78.0,50.0,-100.00,East,87,0.0,7.0,38,0.00,,,0.00,257.000000,,2013-05-26 00:02:00,
2013-05-25 20:32:00,69.0,56.0,-100.00,East,85,0.0,1.0,64,0.00,,,0.00,123.000000,,2013-05-26 00:32:00,
2013-05-25 20:43:00,69.0,56.0,-100.00,East,85,0.0,1.0,64,0.00,,,0.00,123.000000,,2013-05-26 00:43:00,
2013-05-25 20:53:00,69.0,56.0,-100.00,East,85,0.0,1.0,64,0.00,,,0.00,123.000000,,2013-05-26 00:53:00,
2013-05-25 21:01:00,69.0,56.0,-100.00,East,85,0.0,1.0,64,0.00,,,0.00,123.000000,,2013-05-26 01:01:00,
2013-05-25 21:32:00,61.0,54.0,-100.00,SE,144,0.0,0.0,78,0.00,,,0.00,10.000000,,2013-05-26 01:32:00,
2013-05-25 21:42:00,61.0,54.0,-100.00,SE,144,0.0,0.0,78,0.00,,,0.00,10.000000,,2013-05-26 01:42:00,
2013-05-25 21:53:00,61.0,54.0,-100.00,SE,144,0.0,0.0,78,0.00,,,0.00,10.000000,,2013-05-26 01:53:00,
2013-05-25 22:02:00,61.0,54.0,-100.00,SE,144,0.0,0.0,78,0.00,,,0.00,10.000000,,2013-05-26 02:02:00,
2013-05-25 22:32:00,57.0,53.0,-100.00,SSE,148,0.0,0.0,88,0.00,,,0.00,0.000000,,2013-05-26 02:32:00,
2013-05-25 22:42:00,57.0,53.0,-100.00,SSE,148,0.0,0.0,88,0.00,,,0.00,0.000000,,2013-05-26 02:42:00,
2013-05-25 22:52:00,57.0,53.0,-100.00,SSE,148,0.0,0.0,88,0.00,,,0.00,0.000000,,2013-05-26 02:52:00,
2013-05-25 23:01:00,57.0,53.0,-100.00,SSE,148,0.0,0.0,88,0.00,,,0.00,0.000000,,2013-05-26 03:01:00,
2013-05-25 23:33:00,55.0,52.0,-100.00,South,174,0.0,0.0,90,0.00,,,0.00,0.000000,,2013-05-26 03:33:00,
2013-05-25 23:43:00,55.0,52.0,-100.00,South,174,0.0,0.0,90,0.00,,,0.00,0.000000,,2013-05-26 03:43:00,
2013-05-25 23:53:00,55.0,52.0,-100.00,South,174,0.0,0.0,90,0.00,,,0.00,0.000000,,2013-05-26 03:53:00,